A/2019 S4

Japanese version
Home page
Updated on October 5, 2019

---------------------------------------------------------------------

* Profile

Discovery Date September 17, 2019
Magnitude 20.3 mag
Discoverer Mt. Lemmon Survey

* Orbital Elements

Epoch 2020 Apr. 21.0 TT = JDT 2458960.5                                         
T 2020 Apr. 7.05549 TT                                  Veres                   
q   3.4478192            (2000.0)            P               Q                  
z  +0.0046845      Peri.   71.10116     +0.17562493     -0.41727790             
 +/-0.0009700      Node    63.14926     -0.12459808     -0.90786304             
e   0.9838485      Incl.   91.99132     +0.97654043     -0.04079051             
H   14.5                                                                        
From 37 observations 2019 Sept. 17-Oct. 3, mean residual 0".4.                  

* Magnitudes Graph

        H = 14.5  G = 0.15

---------------------------------------------------------------------

The orbital elements are published on M.P.E.C. 2019-T83.
The magnitudes graphs are made with Comet for Windows.

---------------------------------------------------------------------

Copyright(C) Seiichi Yoshida (comet@aerith.net). All rights reserved.